Hourly Data Report for October 29, 2015

All times are specified in Local Standard Time (LST). Add 1 hour to adjust for Daylight Saving Time where and when it is observed.

WINNIPEG A CS
MANITOBA

49°55'00.000" N
97°14'58.000" W
238.70 m
502S001
71849
XWG

Download Data

Hourly Data (October 2015)
Hourly Data Report for October 29, 2015
Temp Definition
°C
Dew Point Temp Definition
°C
Rel Hum Definition
%
Wind Dir Definition
10's deg

Wind Spd Definition
km/h
Visibility Definition
km
Stn Press Definition
kPa
Hmdx Definition


Wind Chill Definition


Weather Definition


TIME
00:00 4.5 3.6 94 34 38   97.57     LegendNANA
01:00 4.2 3.4 95 34 36   97.62     LegendNANA
02:00 4.0 3.2 95 33 31   97.71     LegendNANA
03:00 4.0 3.3 95 33 31   97.77     LegendNANA
04:00 4.0 3.4 96 34 29   97.83     LegendNANA
05:00 4.1 3.2 94 33 30   97.93     LegendNANA
06:00 4.0 2.9 92 34 29   98.00     LegendNANA
07:00 3.2 2.2 93 33 29   98.05     LegendNANA
08:00 3.1 2.4 95 33 27   98.14     LegendNANA
09:00 3.5 1.9 89 36 21   98.22     LegendNANA
10:00 3.2 1.1 86 36 24   98.29     LegendNANA
11:00 2.9 0.9 87 1 20   98.34     LegendNANA
12:00 2.9 0.0 82 2 15   98.38     LegendNANA
13:00 2.9 -0.1 81 35 14   98.40     LegendNANA
14:00 3.2 -0.3 78 32 11   98.41     LegendNANA
15:00 3.1 0.2 81 31 11   98.44     LegendNANA
16:00 2.9 -0.4 79 3 7   98.43     LegendNANA
17:00 2.7 -0.4 80 32 1   98.44     LegendNANA
18:00 2.6 -0.4 81 16 2   98.42     LegendNANA
19:00 2.4 -0.6 81 26 3   98.41     LegendNANA
20:00 2.5 -0.6 80 19 8   98.39     LegendNANA
21:00 2.6 -0.6 79 21 10   98.34     LegendNANA
22:00 2.5 -0.1 83 18 12   98.32     LegendNANA
23:00 2.6 0.3 85 18 13   98.29     LegendNANA

Notes on Data Quality.

Legend

  • E = Estimated
  • M = Missing
  • NA = Not Available
  • ‡ = Partner data that is not subject to review by the National Climate Archives
Date modified: